Weather History for Reno - Stead, NV

Change the Weather History Date:

Friday, August 8, 2014

  Actual Average (KRNO) Record (KRNO)
Temperature  
Mean Temperature 71 °F 75 °F  
Max Temperature 87 °F 92 °F 103 °F (1972)
Min Temperature 55 °F 57 °F 38 °F (1944)
Degree Days  
Heating Degree Days 0 0  
Month to date heating degree days 0  
Since 1 June heating degree days 61  
Since 1 July heating degree days 5  
Cooling Degree Days 6 10  
Month to date cooling degree days 83  
Year to date cooling degree days 570  
Since 1 June cooling degree days 533  
Growing Degree Days 21 (Base 50)    
Moisture  
Dew Point 44 °F    
Average Humidity 43    
Maximum Humidity 82    
Minimum Humidity 14    
Precipitation  
Precipitation 0.02 in 0.01 in 1.03 in (2013)
Month to date precipitation 0.08  
Year to date precipitation 4.54  
Snow  
Snow 0.00 in 0.00 in T in (2013)
Month to date snowfall 0.0  
Since 1 June snowfall T  
Since 1 July snowfall 0.0  
Snow Depth -    
Sea Level Pressure  
Sea Level Pressure 30.10 in    
Wind  
Wind Speed 7 mph (NW)    
Max Wind Speed 20 mph    
Max Gust Speed 26 mph    
Visibility 10 miles    
Events      
T = Trace of Precipitation, MM = Missing Value Source: NWS Daily Summary

Daily Weather History Graph

Daily Weather History Graph

Search for Another Location

Airport:

Trip Planner

Search our weather history database for the weather conditions in past years. The results will help you decide how hot, cold, wet, or windy it might be!

Date:

Astronomy

Aug. 08, 2014 Rise Set
Actual Time 6:05 AM PDT 8:04 PM PDT
Civil Twilight 5:35 AM PDT 8:33 PM PDT
Nautical Twilight 4:59 AM PDT 9:09 PM PDT
Astronomical Twilight 4:20 AM PDT 9:48 PM PDT
Moon 6:20 PM PDT (8/8) 3:43 AM PDT (8/8)
Length of Visible Light 14h 57m
Length of Day
13h 59m
Waxing Gibbous, 94% of the Moon is Illuminated
Aug 8
Waxing Gibbous
Aug 10
Full
Aug 17
Last Quarter
Aug 25
New
Sep 2
First Quarter

Hourly Weather History & Observations

Time (PDT) Temp. Dew Point Humidity Pressure Visibility Wind Dir Wind Speed Gust Speed Precip Events Conditions
12:15 AM 66.2 °F 53.6 °F 64% 30.13 in 10.0 mi NW 5.8 mph - N/A   Clear
12:35 AM 66.2 °F 53.6 °F 64% 30.13 in 10.0 mi NNW 3.5 mph - N/A   Clear
12:55 AM 64.4 °F 53.6 °F 68% 30.13 in 10.0 mi NNW 5.8 mph - N/A   Clear
1:15 AM 64.4 °F 53.6 °F 68% 30.13 in 10.0 mi NNW 6.9 mph - N/A   Clear
1:35 AM 62.6 °F 53.6 °F 72% 30.13 in 10.0 mi North 8.1 mph - N/A   Clear
1:55 AM 62.6 °F 53.6 °F 72% 30.13 in 10.0 mi NNW 6.9 mph - N/A   Clear
2:15 AM 62.6 °F 51.8 °F 68% 30.12 in 10.0 mi NNW 8.1 mph - N/A   Clear
2:35 AM 62.6 °F 51.8 °F 68% 30.12 in 10.0 mi NNW 8.1 mph - N/A   Clear
2:55 AM 62.6 °F 53.6 °F 72% 30.12 in 10.0 mi North 6.9 mph - N/A   Clear
3:15 AM 60.8 °F 51.8 °F 72% 30.12 in 10.0 mi North 6.9 mph - N/A   Clear
3:35 AM 59.0 °F 51.8 °F 77% 30.12 in 10.0 mi North 5.8 mph - N/A   Clear
3:55 AM 57.2 °F 51.8 °F 82% 30.12 in 10.0 mi North 6.9 mph - N/A   Clear
4:15 AM 57.2 °F 50.0 °F 77% 30.12 in 10.0 mi NNW 6.9 mph - N/A   Clear
5:15 AM 57.2 °F 50.0 °F 77% 30.12 in 10.0 mi NNW 4.6 mph - N/A   Clear
5:35 AM 57.2 °F 50.0 °F 77% 30.12 in 10.0 mi North 8.1 mph - N/A   Clear
5:55 AM 57.2 °F 50.0 °F 77% 30.12 in 10.0 mi Calm Calm - N/A   Clear
6:15 AM 55.4 °F 50.0 °F 82% 30.12 in 10.0 mi Calm Calm - N/A   Clear
6:35 AM 57.2 °F 50.0 °F 77% 30.12 in 10.0 mi North 3.5 mph - N/A   Clear
6:55 AM 59.0 °F 50.0 °F 72% 30.13 in 10.0 mi North 5.8 mph - N/A   Clear
7:15 AM 59.0 °F 50.0 °F 72% 30.13 in 10.0 mi Calm Calm - N/A   Clear
7:35 AM 62.6 °F 50.0 °F 63% 30.13 in 10.0 mi NNW 3.5 mph - N/A   Clear
7:55 AM 64.4 °F 50.0 °F 59% 30.13 in 10.0 mi Calm Calm - N/A   Clear
8:15 AM 66.2 °F 50.0 °F 56% 30.13 in 10.0 mi Calm Calm - N/A   Clear
8:35 AM 68.0 °F 51.8 °F 56% 30.14 in 10.0 mi Calm Calm - N/A   Clear
8:55 AM 69.8 °F 51.8 °F 53% 30.13 in 9.0 mi SSE 3.5 mph - N/A   Clear
9:35 AM 73.4 °F 50.0 °F 44% 30.13 in 10.0 mi Calm Calm - 0.02 in   Clear
9:55 AM 75.2 °F 50.0 °F 41% 30.13 in 10.0 mi Calm Calm - 0.02 in   Clear
10:15 AM 75.2 °F 50.0 °F 41% 30.12 in 10.0 mi South 3.5 mph - N/A   Unknown
10:35 AM 75.2 °F 46.4 °F 36% 30.12 in 10.0 mi SE 5.8 mph - N/A   Clear
10:55 AM 77.0 °F 46.4 °F 34% 30.12 in 10.0 mi SSE 4.6 mph - N/A   Clear
11:15 AM 77.0 °F 46.4 °F 34% 30.12 in 10.0 mi ESE 6.9 mph - N/A   Clear
11:35 AM 78.8 °F 46.4 °F 32% 30.12 in 10.0 mi ENE 3.5 mph - N/A   Clear
11:55 AM 80.6 °F 46.4 °F 30% 30.11 in 10.0 mi ESE 6.9 mph - N/A   Clear
12:15 PM 80.6 °F 46.4 °F 30% 30.11 in 10.0 mi North 3.5 mph - N/A   Clear
12:35 PM 80.6 °F 46.4 °F 30% 30.11 in 10.0 mi NE 3.5 mph - N/A   Clear
12:55 PM 82.4 °F 46.4 °F 28% 30.10 in 10.0 mi South 5.8 mph - N/A   Clear
1:15 PM 82.4 °F 44.6 °F 26% 30.09 in 10.0 mi ESE 5.8 mph - N/A   Clear
1:35 PM 82.4 °F 42.8 °F 25% 30.08 in 10.0 mi ENE 4.6 mph - N/A   Clear
1:55 PM 84.2 °F 41.0 °F 22% 30.08 in 10.0 mi SSE 5.8 mph - N/A   Clear
2:15 PM 84.2 °F 39.2 °F 20% 30.07 in 10.0 mi SSW 5.8 mph 17.3 mph N/A   Mostly Cloudy
2:35 PM 84.2 °F 35.6 °F 18% 30.07 in 10.0 mi WSW 11.5 mph 18.4 mph N/A   Mostly Cloudy
2:55 PM 87.8 °F 32.0 °F 14% 30.06 in 10.0 mi West 18.4 mph 26.5 mph N/A   Mostly Cloudy
3:15 PM 86.0 °F 32.0 °F 14% 30.05 in 10.0 mi West 10.4 mph 25.3 mph N/A   Clear
3:35 PM 86.0 °F 32.0 °F 14% 30.05 in 10.0 mi West 19.6 mph 23.0 mph N/A   Clear
3:55 PM 87.8 °F 32.0 °F 14% 30.05 in 10.0 mi WSW 18.4 mph 25.3 mph N/A   Partly Cloudy
4:15 PM 86.0 °F 32.0 °F 14% 30.05 in 10.0 mi West 16.1 mph 24.2 mph N/A   Clear
4:35 PM 86.0 °F 33.8 °F 15% 30.05 in 10.0 mi SW 15.0 mph 23.0 mph N/A   Clear
4:55 PM 86.0 °F 35.6 °F 17% 30.04 in 10.0 mi WSW 12.7 mph 23.0 mph N/A   Clear
5:15 PM 86.0 °F 35.6 °F 17% 30.04 in 10.0 mi WSW 17.3 mph 26.5 mph N/A   Clear
5:35 PM 84.2 °F 35.6 °F 18% 30.04 in 10.0 mi WSW 18.4 mph 26.5 mph N/A   Clear
5:55 PM 84.2 °F 33.8 °F 16% 30.04 in 10.0 mi WSW 18.4 mph 26.5 mph N/A   Clear
6:15 PM 82.4 °F 35.6 °F 19% 30.04 in 10.0 mi West 17.3 mph - N/A   Clear
6:35 PM 82.4 °F 35.6 °F 19% 30.05 in 10.0 mi WNW 17.3 mph 24.2 mph N/A   Clear
6:55 PM 82.4 °F 35.6 °F 19% 30.05 in 10.0 mi West 12.7 mph 24.2 mph N/A   Clear
7:15 PM 78.8 °F 32.0 °F 18% 30.06 in 10.0 mi WNW 13.8 mph 20.7 mph N/A   Clear
7:35 PM 77.0 °F 32.0 °F 19% 30.06 in 10.0 mi WNW 12.7 mph 18.4 mph N/A   Clear
7:55 PM 77.0 °F 37.4 °F 24% 30.07 in 10.0 mi WNW 10.4 mph - N/A   Clear
8:15 PM 75.2 °F 37.4 °F 25% 30.08 in 10.0 mi Calm Calm - N/A   Clear
8:55 PM 73.4 °F 39.2 °F 29% 30.10 in 10.0 mi NNW 4.6 mph - N/A   Clear
9:15 PM 73.4 °F 37.4 °F 27% 30.11 in 10.0 mi WNW 5.8 mph - N/A   Clear
9:35 PM 73.4 °F 39.2 °F 29% 30.11 in 10.0 mi WNW 8.1 mph - N/A   Clear
9:55 PM 71.6 °F 39.2 °F 31% 30.12 in 10.0 mi North 5.8 mph - N/A   Clear
10:35 PM 66.2 °F 41.0 °F 40% 30.11 in 10.0 mi WNW 5.8 mph - N/A   Clear
10:55 PM 66.2 °F 41.0 °F 40% 30.11 in 10.0 mi WNW 9.2 mph - N/A   Clear
11:15 PM 64.4 °F 41.0 °F 42% 30.11 in 10.0 mi NW 9.2 mph - N/A   Clear
11:35 PM 64.4 °F 41.0 °F 42% 30.11 in 10.0 mi WNW 9.2 mph - N/A   Clear
11:55 PM 62.6 °F 39.2 °F 42% 30.12 in 10.0 mi NNW 8.1 mph - N/A   Clear